User: anonymous   Login
Location: Unspecified
(0.0000°N, 0.0000°E)
Time: 07:48:24
(UTC+00:00)
Language:

USA 269 - Orbit

View from above orbital plane
View from above orbital plane
View from above satellite
View from above satellite

Ground track
Ground track

The orbit data is extracted from the following two-line orbital elements,

1 41724U 16047A   23263.08198837 0.00000000  00000-0  00000-0 0    09
2 41724   2.5349  18.1959 0004144  36.0495 324.0025  1.00270000    02
Epoch (UTC): 20 September 2023 01:58:03
Eccentricity: 0.0004144
inclination: 2.5349°
perigee height: 35769 km
apogee height: 35804 km
right ascension of ascending node: 18.1959°
argument of perigee: 36.0495°
revolutions per day: 1.00270000
mean anomaly at epoch: 324.0025°
orbit number at epoch: 0

The dashed part of the orbit path shows where the satellite is in the earth's shadow,  

DLR